This is the latest recevied weather packets stored in our database for station/object TA2LKM-11. If no packets are shown the sender has not sent any weather packets the latest 10 day(s).
| Time | Temp. | Humidity | Pressure | Rain* | Wind** | Luminosity | Snow |
|---|---|---|---|---|---|---|---|
| 1788446632 | 31.11° C | 33% | 1010.6 hPa | - | - | - | - |
| 1788445732 | 31.67° C | 33% | 1010.6 hPa | - | - | - | - |
| 1788444831 | 31.67° C | 33% | 1010.4 hPa | - | - | - | - |
| 1788444743 | 31.67° C | 33% | 1010.4 hPa | - | - | - | - |
| 1788443842 | 31.67° C | 32% | 1010.4 hPa | - | - | - | - |
| 1788442941 | 32.22° C | 32% | 1010.5 hPa | - | - | - | - |
| 1788442040 | 32.22° C | 29% | 1010.4 hPa | - | - | - | - |
| 1788441139 | 31.67° C | 30% | 1010.5 hPa | - | - | - | - |
| 1788440995 | 32.22° C | 29% | 1010.5 hPa | - | - | - | - |
| 1788440095 | 32.22° C | 27% | 1010.3 hPa | - | - | - | - |
| 1788439194 | 32.22° C | 26% | 1010.3 hPa | - | - | - | - |
| 1788438293 | 32.78° C | 25% | 1010.4 hPa | - | - | - | - |
| 1788437393 | 32.78° C | 25% | 1010.5 hPa | - | - | - | - |
| 1788436492 | 33.33° C | 25% | 1010.5 hPa | - | - | - | - |
| 1788435591 | 32.78° C | 25% | 1010.6 hPa | - | - | - | - |
| 1788434690 | 32.78° C | 26% | 1010.5 hPa | - | - | - | - |
| 1788433790 | 32.78° C | 27% | 1010.7 hPa | - | - | - | - |
| 1788432889 | 33.33° C | 27% | 1010.9 hPa | - | - | - | - |
| 1788431988 | 33.33° C | 28% | 1011.1 hPa | - | - | - | - |
| 1788431898 | 33.33° C | 29% | 1011.2 hPa | - | - | - | - |
| 1788430998 | 33.33° C | 31% | 1011.3 hPa | - | - | - | - |
| 1788430097 | 33.33° C | 31% | 1011.4 hPa | - | - | - | - |
| 1788429196 | 32.78° C | 38% | 1011.7 hPa | - | - | - | - |
| 1788428477 | 31.67° C | 38% | 1011.8 hPa | - | - | - | - |
| 1788428385 | 32.22° C | 33% | 1011.8 hPa | - | - | - | - |
* Rain since midnight (hover to see other rain measurements)
** Current wind speed in m/s (hover to see current wind gust speed)